Location: Albuquerque Trailhead
(34.7934°N, 106.3736°W)
Time: 09:55:45
(UTC+00:00)

Exosat Rocket - Pass Details

Date: 29 October 2021
Orbit: 759 x 2516 km, 72.3° (Epoch: 08 December)

Event Time Altitude Azimuth Distance (km) Brightness Sun altitude
Exits shadow 08:37:36 10° 112° (ESE) 3,863 7.2 -57.6°
Reaches altitude 10° 08:37:44 10° 112° (ESE) 3,851 7.2 -57.6°
Maximum altitude 08:42:33 15° 82° (E) 3,813 7.3 -56.8°
Drops below altitude 10° 08:48:03 10° 53° (NE) 4,550 7.8 -55.8°
Sets 08:54:05 0° 34° (NE) 5,864 8.5 -54.8°
